Weather History for KBMG - January, 2014

Change the Weather History Date:

Saturday, January 4, 2014

  Actual Average Record
Temperature  
Mean Temperature 28 °F 29 °F  
Max Temperature 39 °F 38 °F 66 °F (1997)
Min Temperature 16 °F 21 °F -7 °F (1999)
Degree Days  
Heating Degree Days 37 36  
Month to date heating degree days 163 144  
Since 1 July heating degree days 2314 2217  
Cooling Degree Days 0 0  
Month to date cooling degree days 0 0  
Year to date cooling degree days 0 0  
Moisture  
Dew Point 15 °F    
Average Humidity 56    
Maximum Humidity 67    
Minimum Humidity 44    
Precipitation  
Precipitation 0.00 in 0.14 in 3.07 in (2004)
Month to date precipitation 0.31 0.54  
Year to date precipitation 0.31 0.54  
Sea Level Pressure  
Sea Level Pressure 30.08 in    
Wind  
Wind Speed 12 mph (SSW)    
Max Wind Speed 23 mph    
Max Gust Speed 31 mph    
Visibility 10 miles    
Events      
T = Trace of Precipitation, MM = Missing Value Source: NWS Daily Summary

Daily Weather History Graph

Daily Weather History Graph

Search for Another Location

Airport or City:

Trip Planner

Search our weather history database for the weather conditions in past years. The results will help you decide how hot, cold, wet, or windy it might be!

Date:

Astronomy

Jan. 04, 2014 Rise Set
Actual Time 8:06 AM EST 5:37 PM EST
Civil Twilight 7:36 AM EST 6:06 PM EST
Nautical Twilight 7:02 AM EST 6:40 PM EST
Astronomical Twilight 6:30 AM EST 7:12 PM EST
Moon 10:13 AM EST (1/4) 9:54 PM EST (1/4)
Length of Visible Light 10h 30m
Length of Day
9h 31m
Waxing Crescent, 15% of the Moon is Illuminated
Jan 4
Waxing Crescent
Jan 7
First Quarter
Jan 15
Full
Jan 24
Last Quarter
Jan 30
New

Hourly Weather History & Observations

Time (EST) Temp. Windchill Dew Point Humidity Pressure Visibility Wind Dir Wind Speed Gust Speed Precip Events Conditions
12:53 AM 17.1 °F 5.8 °F 8.1 °F 68% 30.19 in 10.0 mi South 9.2 mph - N/A   Clear
1:53 AM 17.1 °F 7.6 °F 7.0 °F 65% 30.18 in 10.0 mi SSE 6.9 mph - N/A   Clear
2:53 AM 17.1 °F 6.6 °F 8.1 °F 68% 30.17 in 10.0 mi SSE 8.1 mph - N/A   Clear
3:53 AM 21.0 °F 8.6 °F 8.1 °F 57% 30.16 in 10.0 mi South 12.7 mph 18.4 mph N/A   Clear
4:53 AM 21.9 °F 8.7 °F 9.0 °F 58% 30.14 in 10.0 mi South 15.0 mph - N/A   Clear
5:53 AM 21.9 °F 8.7 °F 9.0 °F 58% 30.13 in 10.0 mi South 15.0 mph - N/A   Clear
6:53 AM 23.0 °F 9.2 °F 10.0 °F 58% 30.12 in 10.0 mi SSW 17.3 mph - N/A   Clear
7:53 AM 24.1 °F 10.1 °F 10.9 °F 57% 30.11 in 10.0 mi SSW 18.4 mph 25.3 mph N/A   Clear
8:53 AM 26.1 °F 12.0 °F 12.0 °F 55% 30.11 in 10.0 mi SSW 20.7 mph 27.6 mph N/A   Clear
9:53 AM 28.0 °F 16.5 °F 12.9 °F 53% 30.12 in 10.0 mi SSW 15.0 mph 23.0 mph N/A   Clear
10:53 AM 30.9 °F 18.7 °F 14.0 °F 50% 30.11 in 10.0 mi SSW 19.6 mph 27.6 mph N/A   Clear
11:53 AM 33.1 °F 21.5 °F 16.0 °F 50% 30.10 in 10.0 mi SSW 19.6 mph 27.6 mph N/A   Clear
12:53 PM 35.1 °F 25.2 °F 16.0 °F 46% 30.06 in 10.0 mi SSW 16.1 mph 26.5 mph N/A   Clear
1:53 PM 36.0 °F 26.0 °F 16.0 °F 44% 30.04 in 10.0 mi SSW 17.3 mph 26.5 mph N/A   Clear
2:53 PM 37.0 °F 28.5 °F 17.1 °F 44% 30.03 in 10.0 mi SSW 13.8 mph 24.2 mph N/A   Clear
3:53 PM 37.9 °F 28.9 °F 18.0 °F 45% 30.02 in 10.0 mi SSW 16.1 mph - N/A   Overcast
4:53 PM 37.9 °F 30.5 °F 19.0 °F 47% 30.01 in 10.0 mi SSW 11.5 mph - N/A   Overcast
5:53 PM 37.0 °F 30.4 °F 19.9 °F 50% 30.01 in 10.0 mi South 9.2 mph - N/A   Overcast
6:53 PM 37.0 °F 32.4 °F 21.0 °F 52% 30.02 in 10.0 mi South 5.8 mph - N/A   Overcast
7:53 PM 37.9 °F 35.5 °F 18.0 °F 45% 30.03 in 10.0 mi South 3.5 mph - N/A   Overcast
8:53 PM 35.1 °F 32.2 °F 23.0 °F 61% 30.04 in 10.0 mi South 3.5 mph - N/A   Overcast
9:53 PM 36.0 °F 33.3 °F 21.0 °F 55% 30.03 in 10.0 mi SSE 3.5 mph - N/A   Overcast
10:53 PM 37.0 °F 31.0 °F 19.9 °F 50% 30.03 in 10.0 mi South 8.1 mph - N/A   Overcast
11:53 PM 37.9 °F 31.5 °F 21.0 °F 51% 30.03 in 10.0 mi SSW 9.2 mph - N/A   Overcast